Tracking 32577 objects as of 14-Dec-2025
HD Live streaming from Space Station
objects crossing your sky now

STARLINK-6131

Track STARLINK-6131 now!
10-day predictions
STARLINK-6131 is classified as:


NORAD ID: 57107
Int'l Code: 2023-090G
Perigee: 565.3 km
Apogee: 567.1 km
Inclination: 43.0 °
Period: 95.8 minutes
Semi major axis: 6937 km
RCS: Unknown
Launch date: June 23, 2023
Source: United States (US)
Launch site: AIR FORCE EASTERN TEST RANGE (AFETR)
Your satellite tracking list
Your tracking list is empty




NASA's NSSDC Master Catalog

Two Line Element Set (TLE):
1 57107U 23090G   25347.80603596  .00000704  00000-0  67151-4 0  9997
2 57107  43.0052  21.3742 0001318 270.0976  89.9716 15.02539944137495
Source of the keplerian elements: AFSPC